Lexington Weather

Lexington, Massachusetts, USA

25°F
2/26/2021 7:45am 
  • Lexington Conditions: Clear
  • Temperature: 25.0°F / -3.9°CWarmer 0.2°F than last hour.
  • Dew Point: 15.6°FIncreased 0.5°Fsince last hour.
  • Relative Humidity: 67%Increased 1.0% since last hour.
  • Wind: Wind from W W 2 mph, 10-min avg: Calm, gust: 3 mph
  • Barometer: 30.36 inRising 0.04  inHg/hr Rising Slowly
  • Visibility: 10 miles
  • Snow Today: 0.0 in
  •   

Regional Weather Roundup
for Boston / Norton, MA

        
000
ASUS41 KBOX 211505
RWRBOX

REGIONAL WEATHER ROUNDUP
NATIONAL WEATHER SERVICE BOSTON/NORTON MA
1000 AM EST SUN FEB 21 2021

NOTE:  "FAIR" INDICATES FEW OR NO CLOUDS BELOW 12,000 FEET WITH NO 
SIGNIFICANT WEATHER AND/OR OBSTRUCTIONS TO VISIBILITY.

MAZALL-211600-
EASTERN MASSACHUSETTS
  
CITY           SKY/WX    TMP DP  RH WIND       PRES   REMARKS
BOSTON         MOSUNNY   26  11  52 NW15G21   30.43R WCI  14          
BEVERLY        SUNNY     27  11  51 N15       30.40R WCI  15          
LAWRENCE       SUNNY     26  11  52 NW14G20   30.42S WCI  14          
BEDFORD        SUNNY     27  11  51 NW9G24    30.41R WCI  18          
BLUE HILL        N/A     24  12  60 NW13G23   30.36R WCI  12          
NORWOOD        SUNNY     28  10  46 N10G25    30.43R WCI  19          
MARSHFIELD     SUNNY     28  16  59 NW9G21    30.41R WCI  20          
PLYMOUTH       SUNNY     26  15  63 N13       30.40R WCI  15          
TAUNTON        SUNNY     28  12  51 NW13G21   30.41R WCI  17          
NEW BEDFORD    SUNNY     29  13  51 VRB6G23   30.41R WCI  23          
$$

MAZALL-211600-
CAPE COD AND THE ISLANDS
  
CITY           SKY/WX    TMP DP  RH WIND       PRES   REMARKS
FALMOUTH       SUNNY     25  14  63 NW17      30.40R WCI  11          
HYANNIS        CLOUDY    29  18  63 NW14G21   30.37R WCI  18          
CHATHAM        CLOUDY    29  18  63 NW10G20   30.37R WCI  20          
PROVINCETOWN   PTSUNNY   30  18  60 N18G25    30.39R WCI  18          
NANTUCKET      SUNNY     27  19  72 NW20G29   30.38R WCI  13          
MARTHAS VNYRD  SUNNY     27  15  61 N18G29    30.41R WCI  14          
$$
 
MAZALL-211600-
CENTRAL AND WESTERN MASSACHUSETTS
  
CITY           SKY/WX    TMP DP  RH WIND       PRES   REMARKS
WORCESTER      SUNNY     25   8  48 N12G23    30.38R WCI  14          
FITCHBURG      MOSUNNY   26  11  52 NW14G23   30.42R WCI  14          
ORANGE         MOSUNNY   25   8  48 NW16      30.43R WCI  12          
SPRINGFIELD    NOT AVBL                                               
WESTFIELD      SUNNY     26  10  50 N15       30.44F WCI  14          
NORTH ADAMS    SUNNY     23   9  55 NW9       30.46R WCI  13          
PITTSFIELD     SUNNY     21   9  59 NW9       30.40R WCI  11          
$$
 
RIZALL-211600-
RHODE ISLAND
  
CITY           SKY/WX    TMP DP  RH WIND       PRES   REMARKS
PROVIDENCE     MOSUNNY   28  10  46 N18       30.44R WCI  15          
NEWPORT        SUNNY     27  11  51 NW16      30.42R WCI  15          
BLOCK ISLAND   SUNNY     27  12  53 N14G22    30.44S WCI  16          
SMITHFIELD     SUNNY     26  11  52 N14G20    30.41R WCI  14          
WESTERLY       SUNNY     26   9  48 N15G22    30.44F WCI  14          
$$
 
CTZALL-211600-
CONNECTICUT
  
CITY           SKY/WX    TMP DP  RH WIND       PRES   REMARKS
BRADLEY INTL   MOSUNNY   26  10  50 N12G21    30.46S WCI  16          
HARTFORD       SUNNY     28   9  44 N10G18    30.48F WCI  19          
BRIDGEPORT     SUNNY     28  10  47 NW14G24   30.49F WCI  17          
DANBURY        SUNNY     28   8  43 NW10G18   30.47F WCI  19          
GROTON         SUNNY     27  10  49 N15G31    30.45F WCI  15          
NEW HAVEN      SUNNY     29  12  49 NW10G20   30.48S WCI  20          
CHESTER        FAIR      28   9  43 NW17      30.44S WCI  16          
MERIDEN        SUNNY     28  11  48 NW9       30.48F WCI  19          
WILLIMANTIC    SUNNY     26  10  50 N16       30.45F WCI  14          
OXFORD         SUNNY     25  11  55 N17       30.44S WCI  12          
$$

MEZ002-015-021-024-NHZ003-005-008-011-012-014-VTZ005-008-211600-
NORTHERN NEW ENGLAND
  
CITY           SKY/WX    TMP DP  RH WIND       PRES   REMARKS
PORTLAND ME    SUNNY     25  10  53 NW15      30.39R WCI  13          
BANGOR ME      SUNNY     22   9  57 NW13      30.33R WCI  10          
CONCORD NH     SUNNY     25   9  50 NW13G23   30.40S WCI  14          
MANCHESTER NH  SUNNY     27  10  49 N15G21    30.40R WCI  15          
NASHUA NH      FLURRIES  29  13  51 N18       30.43R WCI  16          
PORTSMOUTH NH  SUNNY     25   8  49 NW13      30.38S WCI  13          
JAFFREY NH     MOSUNNY   25   8  48 VRB5      30.37R WCI  19          
KEENE NH       MOSUNNY   29  12  49 NW9       30.43R WCI  20          
BURLINGTON VT  MOSUNNY   23   7  50 NW7       30.49R WCI  15          
MT. WASHINGTON BLWGSNOW  -4  -4 100 NW30        N/A  VSB 1/16WCI -31  
$$

NYZ052-076-211600-
EASTERN NEW YORK
  
CITY           SKY/WX    TMP DP  RH WIND       PRES   REMARKS
ALBANY         MOSUNNY   22  10  60 NW8       30.51S WCI  12          
NEW YORK CITY  MOSUNNY   30  15  53 NW10      30.52R WCI  21          
$$
 
ANZALL-211600-
MARINE OBSERVATIONS
  
STATION/POSITION TIME  TEMP    WIND        PRES    VSBY  WAVE
                       AIR SEA DIR/SP/G                  HT/PER
                 (UTC) (F)     (DEG/KT/KT) (MB)    (MI)  (FT/S)
BOSTON BUOY      1450   27 39  340/ 16/ 19 1030.3R         5/ 9
BUZZARDS BAY     1400          340/ 21/ 25 1030.5R
NANTUCKET SOUND  1450      36  330/ 16/ 19   N/A           2/ 4
MASS BAY-STELLWA 1404   26     330/ 17/ 23 1028.1R  1 3/4  6/11
ISLE OF SHOALS   1400   24     320/ 18/ 21 1028.7R
S OF BLOCK IS    1426      38                N/A           6/ 6
$$

......................KEY.........................
  SKY/WX - SKY CONDITION/PRESENT WEATHER
  TMP    - TEMPERATURE IN FAHRENHEIT
  DWPT   - DEWPOINT IN FAHRENHEIT
  RH     - RELATIVE HUMIDITY IN PERCENT
  WIND   - DIRECTION AND SPEED IN MPH
  PRES   - MEAN SEA LEVEL PRESSURE IN INCHES OF HG
  WCI    - WIND CHILL INDEX
  VSB    - VISIBILITY IN MILES
  HX     - HEAT INDEX
  TC     - TEMPERATURE IN CELSIUS
  VRB    - VARIABLE WIND DIRECTION
  N/A    - NOT AVAILABLE
  
      

Other recent Regional Weather Roundups

Fri Feb 26, 7:04am

Fri Feb 26, 6:04am

Fri Feb 26, 5:04am

Fri Feb 26, 4:04am

Fri Feb 26, 3:04am

Fri Feb 26, 2:04am

Fri Feb 26, 1:04am

Fri Feb 26, 12:04am

Thu Feb 25, 11:04pm

Thu Feb 25, 10:04pm

Thu Feb 25, 9:04pm

Thu Feb 25, 8:05pm

Thu Feb 25, 7:05pm

Thu Feb 25, 6:04pm

Thu Feb 25, 5:04pm

Thu Feb 25, 4:05pm

Thu Feb 25, 3:05pm

Thu Feb 25, 2:04pm

Thu Feb 25, 1:04pm

Thu Feb 25, 12:05pm

Thu Feb 25, 11:04am

Thu Feb 25, 10:04am

Thu Feb 25, 9:04am

Thu Feb 25, 8:04am

Thu Feb 25, 7:04am

Thu Feb 25, 6:04am

Thu Feb 25, 5:04am

Thu Feb 25, 4:04am

Thu Feb 25, 3:04am

Thu Feb 25, 2:04am

Thu Feb 25, 1:04am

Thu Feb 25, 12:04am

Wed Feb 24, 11:04pm

Wed Feb 24, 10:05pm

Wed Feb 24, 9:04pm

Wed Feb 24, 8:04pm

Wed Feb 24, 7:04pm

Wed Feb 24, 6:04pm

Wed Feb 24, 5:04pm

Wed Feb 24, 4:04pm

Wed Feb 24, 3:04pm

Wed Feb 24, 2:05pm

Wed Feb 24, 1:05pm

Wed Feb 24, 12:05pm

Wed Feb 24, 11:04am

Wed Feb 24, 10:04am

Wed Feb 24, 9:04am

Wed Feb 24, 8:04am

Wed Feb 24, 7:04am

Wed Feb 24, 6:04am

Wed Feb 24, 5:04am

Wed Feb 24, 4:04am

Wed Feb 24, 3:04am

Wed Feb 24, 2:04am

Wed Feb 24, 1:04am

Wed Feb 24, 12:04am

Tue Feb 23, 11:04pm

Tue Feb 23, 10:04pm

Tue Feb 23, 9:04pm

Tue Feb 23, 8:05pm

Tue Feb 23, 7:04pm

Tue Feb 23, 6:04pm

Tue Feb 23, 5:04pm

Tue Feb 23, 4:05pm

Tue Feb 23, 3:04pm

Tue Feb 23, 2:04pm

Tue Feb 23, 1:04pm

Tue Feb 23, 12:04pm

Tue Feb 23, 11:04am

Tue Feb 23, 10:04am

Tue Feb 23, 9:04am

Tue Feb 23, 7:04am

Tue Feb 23, 6:04am

Tue Feb 23, 5:04am

Tue Feb 23, 4:04am

Tue Feb 23, 3:04am

Tue Feb 23, 2:04am

Tue Feb 23, 1:04am

Tue Feb 23, 12:04am

Mon Feb 22, 11:04pm

Mon Feb 22, 10:04pm

Mon Feb 22, 9:04pm

Mon Feb 22, 8:04pm

Mon Feb 22, 7:04pm

Mon Feb 22, 6:04pm

Mon Feb 22, 5:04pm

Mon Feb 22, 4:05pm

Mon Feb 22, 3:04pm

Mon Feb 22, 2:05pm

Mon Feb 22, 1:04pm

Mon Feb 22, 12:05pm

Mon Feb 22, 11:04am

Mon Feb 22, 10:04am

Mon Feb 22, 9:05am

Mon Feb 22, 8:04am

Mon Feb 22, 7:04am

Mon Feb 22, 6:04am

Mon Feb 22, 5:04am

Mon Feb 22, 4:04am

Mon Feb 22, 3:04am

Mon Feb 22, 2:04am

Mon Feb 22, 1:04am

Mon Feb 22, 12:04am

Sun Feb 21, 11:04pm

Sun Feb 21, 10:05pm

Sun Feb 21, 9:04pm

Sun Feb 21, 8:04pm

Sun Feb 21, 7:04pm

Sun Feb 21, 6:04pm

Sun Feb 21, 5:04pm

Sun Feb 21, 4:05pm

Sun Feb 21, 3:04pm

Sun Feb 21, 2:04pm

Sun Feb 21, 1:05pm

Sun Feb 21, 12:05pm

Sun Feb 21, 11:04am

Sun Feb 21, 9:04am

Sun Feb 21, 8:04am

Sun Feb 21, 7:04am

Sun Feb 21, 6:04am

Sun Feb 21, 5:04am

Sun Feb 21, 4:04am

Sun Feb 21, 3:04am

Sun Feb 21, 2:04am

Sun Feb 21, 1:04am

Sun Feb 21, 12:04am

Sat Feb 20, 11:04pm

Sat Feb 20, 10:04pm

Sat Feb 20, 9:04pm

Sat Feb 20, 8:04pm

Sat Feb 20, 7:04pm

Sat Feb 20, 6:04pm

Sat Feb 20, 5:04pm

Sat Feb 20, 4:05pm

Sat Feb 20, 3:04pm

Sat Feb 20, 2:04pm

Sat Feb 20, 1:05pm

Sat Feb 20, 12:05pm

Sat Feb 20, 11:04am

Sat Feb 20, 10:05am

Sat Feb 20, 9:04am

Sat Feb 20, 8:04am

Sat Feb 20, 7:04am

Sat Feb 20, 6:04am

Sat Feb 20, 5:04am

Sat Feb 20, 4:04am

Sat Feb 20, 3:04am

Sat Feb 20, 2:04am

Sat Feb 20, 1:04am

Sat Feb 20, 12:04am

Fri Feb 19, 11:04pm

Fri Feb 19, 10:05pm

Fri Feb 19, 9:04pm

Fri Feb 19, 8:04pm

Fri Feb 19, 7:04pm

Fri Feb 19, 6:04pm

Fri Feb 19, 5:04pm

Fri Feb 19, 4:05pm

Fri Feb 19, 3:04pm

Fri Feb 19, 2:04pm

Fri Feb 19, 1:05pm

Fri Feb 19, 12:05pm

Fri Feb 19, 11:04am

Fri Feb 19, 10:04am

Fri Feb 19, 9:04am

Fri Feb 19, 8:04am

Meta data:

ID: 1db849a6-8533-417e-9f4d-11aceb9d5bf3
Link: https://api.weather.gov/products/1db849a6-8533-417e-9f4d-11aceb9d5bf3